CST,Max TemperatureF,Mean TemperatureF,Min TemperatureF,Max Dew PointF,MeanDew PointF,Min DewpointF,Max Humidity, Mean Humidity, Min Humidity, Max Sea Level PressureIn, Mean Sea Level PressureIn, Min Sea Level PressureIn, Max VisibilityMiles, Mean VisibilityMiles, Min VisibilityMiles, Max Wind SpeedMPH, Mean Wind SpeedMPH, Max Gust SpeedMPH,PrecipitationIn, CloudCover, Events, WindDirDegrees
2013-1-1,13,3,-7,5,-2,-11,87,70,53,30.35,30.28,30.16,10,10,6,10,4,13,0.00,3,,258
2013-1-2,28,15,1,27,12,-3,92,83,73,30.18,30.10,30.04,10,8,5,15,7,17,T,5,,220
2013-1-3,28,18,8,21,9,4,85,76,67,30.38,30.29,30.12,10,10,10,21,10,25,0.00,4,,284
2013-1-4,29,19,8,20,12,6,88,76,63,30.28,30.22,30.17,10,9,5,21,9,24,0.00,0,,237
2013-1-5,35,21,6,30,18,4,96,83,70,30.19,30.05,29.90,10,9,5,22,10,29,0.00,2,,227
2013-1-6,24,18,11,13,9,5,88,74,59,30.32,30.22,30.02,10,10,9,18,7,24,0.00,2,,281
2013-1-7,38,27,16,28,22,12,85,72,59,30.24,30.08,30.00,10,9,2,24,10,29,0.00,0,,195
2013-1-8,38,26,14,30,23,13,100,85,70,30.05,29.99,29.89,10,8,2,21,9,25,0.00,0,,170
2013-1-9,41,32,23,28,26,24,92,78,64,30.45,30.33,30.05,10,10,10,22,9,26,0.00,0,,241
2013-1-10,37,30,23,34,29,21,100,89,50,30.43,30.04,29.75,10,6,0,17,9,26,0.12,5,Fog-Rain,123
2013-1-11,47,40,33,43,38,33,100,92,83,29.75,29.60,29.50,10,3,0,22,8,29,0.04,6,Fog-Rain,164
2013-1-12,48,31,14,41,16,5,89,73,57,30.09,29.92,29.52,10,10,8,30,16,38,0.00,4,,282
2013-1-13,14,10,6,5,2,-1,80,71,61,30.34,30.18,30.04,10,10,10,18,11,23,0.00,5,,302
2013-1-14,26,15,4,11,6,0,87,69,50,30.49,30.43,30.36,10,10,10,15,4,18,0.00,0,,241
2013-1-15,32,21,10,14,10,6,83,65,47,30.41,30.27,30.02,10,10,10,16,9,21,0.00,0,,200
2013-1-16,44,32,20,34,23,10,89,76,62,30.20,29.98,29.83,10,10,10,24,15,30,T,5,,279
2013-1-17,30,21,12,19,12,5,88,67,46,30.46,30.39,30.23,10,10,10,17,6,21,0.00,3,,298
2013-1-18,50,37,24,33,27,19,82,64,46,30.36,30.01,29.85,10,10,10,28,14,36,0.00,0,,208
2013-1-19,50,31,12,31,23,2,92,69,46,30.22,29.92,29.79,10,10,10,40,15,54,0.00,2,,275
2013-1-20,13,9,5,5,2,-3,76,69,61,30.43,30.34,30.26,10,8,1,24,13,31,T,6,Snow,301
2013-1-21,8,1,-6,0,-8,-16,79,67,55,30.43,30.35,30.26,10,10,3,25,14,33,T,2,Snow,300
2013-1-22,12,4,-4,0,-6,-9,79,65,50,30.46,30.41,30.35,10,10,10,13,6,16,0.00,4,,286
2013-1-23,27,15,2,11,2,-10,67,59,50,30.57,30.30,30.18,10,10,10,30,14,38,0.00,4,,279
2013-1-24,18,9,0,4,-7,-12,62,49,36,30.69,30.53,30.27,10,10,10,18,10,22,0.00,1,,101
2013-1-25,31,19,7,16,7,0,73,59,45,30.34,30.15,30.02,10,10,10,28,13,36,T,3,,279
2013-1-26,28,14,0,12,4,-4,87,63,39,30.42,30.33,30.22,10,10,10,20,8,25,0.00,2,,137
2013-1-27,33,31,28,32,27,13,100,75,49,30.22,29.94,29.77,10,4,1,22,11,28,0.27,7,Rain,135
2013-1-28,45,38,31,45,35,30,100,96,92,29.95,29.80,29.62,5,1,0,16,6,21,0.50,8,Fog-Rain-Thunderstorm,106
2013-1-29,49,41,33,48,39,30,100,95,89,29.65,29.57,29.49,10,6,0,21,11,26,0.01,8,Fog-Rain,295
2013-1-30,33,23,12,29,17,5,92,81,70,29.81,29.60,29.45,10,3,0,31,20,38,0.27,8,Fog-Snow,325
2013-1-31,12,4,-4,3,-5,-12,80,73,65,30.37,30.05,29.80,10,8,2,29,15,36,T,5,Snow,299